,,PressureMeas_1m,,PRMeasQMR101_1,,RHStat155_1m_1,,SRMeasQMS101R_1m,,TAStat155_1m_1,,GenWind_1,,GenWind_1,
2017-07-20, 07:00:06,VALID,918.046,VALID,0.0,VALID,98.585,VALID,37.553,VALID,17.523,VALID,134.0,VALID,0.444,
2017-07-20, 07:01:06,VALID,918.056,VALID,0.0,VALID,98.569,VALID,40.35,VALID,17.49,VALID,122.0,VALID,0.334,
2017-07-20, 07:02:06,VALID,918.066,VALID,0.0,VALID,98.542,VALID,44.018,VALID,17.456,VALID,116.0,VALID,0.518,
2017-07-20, 07:03:06,VALID,918.07,VALID,0.0,VALID,98.605,VALID,46.543,VALID,17.506,VALID,121.0,VALID,0.566,
2017-07-20, 07:04:06,VALID,918.07,VALID,0.0,VALID,98.665,VALID,49.107,VALID,17.586,VALID,132.0,VALID,0.5,
2017-07-20, 07:05:06,VALID,918.096,VALID,0.0,VALID,98.696,VALID,51.751,VALID,17.648,VALID,134.0,VALID,0.363,
2017-07-20, 07:06:06,VALID,918.132,VALID,0.0,VALID,98.713,VALID,54.669,VALID,17.679,VALID,134.0,VALID,0.266,
2017-07-20, 07:07:06,VALID,918.153,VALID,0.0,VALID,98.687,VALID,57.941,VALID,17.693,VALID,134.0,VALID,0.218,
2017-07-20, 07:08:06,VALID,918.179,VALID,0.0,VALID,98.729,VALID,61.632,VALID,17.738,VALID,134.0,VALID,0.226,
2017-07-20, 07:09:06,VALID,918.214,VALID,0.0,VALID,98.709,VALID,65.63,VALID,17.769,VALID,134.0,VALID,0.204,
2017-07-20, 07:10:06,VALID,918.247,VALID,0.0,VALID,98.707,VALID,69.69,VALID,17.77,VALID,134.0,VALID,0.21,
2017-07-20, 07:11:06,VALID,918.279,VALID,0.0,VALID,98.673,VALID,74.164,VALID,17.774,VALID,134.0,VALID,0.229,
2017-07-20, 07:12:06,VALID,918.313,VALID,0.0,VALID,98.67,VALID,79.776,VALID,17.797,VALID,133.0,VALID,0.397,
2017-07-20, 07:13:06,VALID,918.333,VALID,0.0,VALID,98.671,VALID,85.377,VALID,17.839,VALID,120.0,VALID,0.454,
2017-07-20, 07:14:06,VALID,918.355,VALID,0.0,VALID,98.665,VALID,90.115,VALID,17.885,VALID,114.0,VALID,0.486,
2017-07-20, 07:15:06,VALID,918.377,VALID,0.0,VALID,98.655,VALID,77.799,VALID,17.922,VALID,107.0,VALID,0.466,
2017-07-20, 07:16:06,VALID,918.409,VALID,0.0,VALID,98.629,VALID,74.651,VALID,17.959,VALID,106.0,VALID,0.356,
2017-07-20, 07:17:06,VALID,918.428,VALID,0.0,VALID,98.612,VALID,77.816,VALID,17.98,VALID,106.0,VALID,0.525,
2017-07-20, 07:18:06,VALID,918.417,VALID,0.0,VALID,98.625,VALID,87.416,VALID,18.035,VALID,109.0,VALID,0.834,
2017-07-20, 07:19:06,VALID,918.431,VALID,0.0,VALID,98.599,VALID,88.51,VALID,18.074,VALID,124.0,VALID,0.941,
2017-07-20, 07:20:06,VALID,918.451,VALID,0.0,VALID,98.575,VALID,102.81,VALID,18.107,VALID,127.0,VALID,1.142,
2017-07-20, 07:21:06,VALID,918.449,VALID,0.0,VALID,98.572,VALID,103.205,VALID,18.17,VALID,130.0,VALID,0.894,
2017-07-20, 07:22:06,VALID,918.462,VALID,0.0,VALID,98.587,VALID,86.807,VALID,18.235,VALID,127.0,VALID,0.955,
2017-07-20, 07:23:06,VALID,918.455,VALID,0.0,VALID,98.537,VALID,82.678,VALID,18.264,VALID,119.0,VALID,1.062,
2017-07-20, 07:24:06,VALID,918.458,VALID,0.0,VALID,98.521,VALID,89.869,VALID,18.309,VALID,120.0,VALID,0.759,
2017-07-20, 07:25:06,VALID,918.442,VALID,0.0,VALID,98.521,VALID,85.141,VALID,18.366,VALID,130.0,VALID,0.545,
2017-07-20, 07:26:06,VALID,918.444,VALID,0.0,VALID,98.442,VALID,83.159,VALID,18.336,VALID,133.0,VALID,0.619,
2017-07-20, 07:27:06,VALID,918.45,VALID,0.0,VALID,98.412,VALID,82.794,VALID,18.343,VALID,129.0,VALID,0.762,
2017-07-20, 07:28:06,VALID,918.454,VALID,0.0,VALID,98.382,VALID,82.904,VALID,18.347,VALID,130.0,VALID,0.682,
2017-07-20, 07:29:06,VALID,918.459,VALID,0.0,VALID,98.354,VALID,83.679,VALID,18.35,VALID,135.0,VALID,0.668,
2017-07-20, 07:30:06,VALID,918.46,VALID,0.0,VALID,98.326,VALID,85.237,VALID,18.365,VALID,136.0,VALID,0.63,
2017-07-20, 07:31:06,VALID,918.447,VALID,0.0,VALID,98.307,VALID,88.473,VALID,18.383,VALID,130.0,VALID,0.659,
2017-07-20, 07:32:06,VALID,918.445,VALID,0.0,VALID,98.329,VALID,96.805,VALID,18.411,VALID,115.0,VALID,0.679,
2017-07-20, 07:33:06,VALID,918.431,VALID,0.0,VALID,98.32,VALID,101.939,VALID,18.43,VALID,109.0,VALID,0.834,
2017-07-20, 07:34:06,VALID,918.434,VALID,0.0,VALID,98.287,VALID,105.845,VALID,18.453,VALID,99.0,VALID,0.667,
2017-07-20, 07:35:06,VALID,918.446,VALID,0.0,VALID,98.279,VALID,108.155,VALID,18.485,VALID,90.0,VALID,0.448,
2017-07-20, 07:36:06,VALID,918.448,VALID,0.0,VALID,98.247,VALID,108.869,VALID,18.506,VALID,96.0,VALID,0.534,
2017-07-20, 07:37:06,VALID,918.453,VALID,0.0,VALID,98.189,VALID,109.541,VALID,18.514,VALID,97.0,VALID,0.54,
2017-07-20, 07:38:06,VALID,918.455,VALID,0.0,VALID,98.158,VALID,110.025,VALID,18.535,VALID,96.0,VALID,0.554,
2017-07-20, 07:39:06,VALID,918.456,VALID,0.0,VALID,98.125,VALID,109.564,VALID,18.571,VALID,95.0,VALID,0.565,
2017-07-20, 07:40:06,VALID,918.464,VALID,0.0,VALID,98.092,VALID,109.047,VALID,18.595,VALID,94.0,VALID,0.727,
2017-07-20, 07:41:06,VALID,918.481,VALID,0.0,VALID,98.078,VALID,110.015,VALID,18.647,VALID,112.0,VALID,0.765,
2017-07-20, 07:42:06,VALID,918.504,VALID,0.0,VALID,98.022,VALID,111.936,VALID,18.678,VALID,143.0,VALID,0.6,
2017-07-20, 07:43:06,VALID,918.523,VALID,0.0,VALID,98.006,VALID,113.611,VALID,18.73,VALID,176.0,VALID,0.546,
2017-07-20, 07:44:06,VALID,918.54,VALID,0.0,VALID,98.014,VALID,114.184,VALID,18.786,VALID,176.0,VALID,0.48,
2017-07-20, 07:45:06,VALID,918.549,VALID,0.0,VALID,97.85,VALID,115.165,VALID,18.764,VALID,158.0,VALID,0.769,
2017-07-20, 07:46:06,VALID,918.569,VALID,0.0,VALID,97.507,VALID,117.04,VALID,18.681,VALID,150.0,VALID,0.883,
2017-07-20, 07:47:06,VALID,918.598,VALID,0.0,VALID,97.409,VALID,118.905,VALID,18.666,VALID,137.0,VALID,0.816,
2017-07-20, 07:48:06,VALID,918.639,VALID,0.0,VALID,97.496,VALID,121.858,VALID,18.697,VALID,135.0,VALID,0.671,
2017-07-20, 07:49:06,VALID,918.666,VALID,0.0,VALID,97.547,VALID,125.723,VALID,18.738,VALID,114.0,VALID,0.739,
2017-07-20, 07:50:06,VALID,918.681,VALID,0.0,VALID,97.465,VALID,129.346,VALID,18.753,VALID,115.0,VALID,0.637,
2017-07-20, 07:51:06,VALID,918.706,VALID,0.0,VALID,97.434,VALID,133.525,VALID,18.801,VALID,115.0,VALID,0.453,
2017-07-20, 07:52:06,VALID,918.705,VALID,0.0,VALID,97.497,VALID,140.097,VALID,18.867,VALID,117.0,VALID,0.239,
2017-07-20, 07:53:06,VALID,918.708,VALID,0.0,VALID,97.518,VALID,145.028,VALID,18.929,VALID,107.0,VALID,0.227,
2017-07-20, 07:54:06,VALID,918.71,VALID,0.0,VALID,97.536,VALID,151.827,VALID,18.978,VALID,106.0,VALID,0.13,
2017-07-20, 07:55:06,VALID,918.721,VALID,0.0,VALID,97.586,VALID,167.328,VALID,19.053,VALID,106.0,VALID,0.0,
2017-07-20, 07:56:06,VALID,918.71,VALID,0.0,VALID,97.616,VALID,181.626,VALID,19.123,VALID,106.0,VALID,0.0,
2017-07-20, 07:57:06,VALID,918.706,VALID,0.0,VALID,97.402,VALID,179.654,VALID,19.148,VALID,129.0,VALID,0.0,
2017-07-20, 07:58:06,VALID,918.698,VALID,0.0,VALID,97.2,VALID,189.006,VALID,19.183,VALID,191.0,VALID,0.0,
2017-07-20, 07:59:06,VALID,918.69,VALID,0.0,VALID,97.411,VALID,200.344,VALID,19.299,VALID,176.0,VALID,0.302,
2017-07-20, 08:00:06,VALID,918.701,VALID,0.0,VALID,97.306,VALID,223.694,VALID,19.351,VALID,176.0,VALID,0.605,
2017-07-20, 08:01:06,VALID,918.694,VALID,0.0,VALID,96.86,VALID,256.327,VALID,19.359,VALID,170.0,VALID,0.517,
2017-07-20, 08:02:06,VALID,918.692,VALID,0.0,VALID,96.498,VALID,286.588,VALID,19.381,VALID,156.0,VALID,0.754,
2017-07-20, 08:03:06,VALID,918.708,VALID,0.0,VALID,95.696,VALID,316.294,VALID,19.37,VALID,156.0,VALID,0.793,
2017-07-20, 08:04:06,VALID,918.733,VALID,0.0,VALID,95.559,VALID,261.28,VALID,19.431,VALID,157.0,VALID,0.608,
2017-07-20, 08:05:06,VALID,918.747,VALID,0.0,VALID,96.414,VALID,277.142,VALID,19.607,VALID,170.0,VALID,0.264,
2017-07-20, 08:06:06,VALID,918.758,VALID,0.0,VALID,96.222,VALID,215.675,VALID,19.706,VALID,139.0,VALID,0.471,
2017-07-20, 08:07:06,VALID,918.787,VALID,0.0,VALID,94.791,VALID,278.469,VALID,19.717,VALID,139.0,VALID,0.689,
2017-07-20, 08:08:06,VALID,918.806,VALID,0.0,VALID,93.96,VALID,287.575,VALID,19.752,VALID,143.0,VALID,0.783,
2017-07-20, 08:09:06,VALID,918.827,VALID,0.0,VALID,92.871,VALID,279.723,VALID,19.746,VALID,150.0,VALID,0.673,
2017-07-20, 08:10:06,VALID,918.842,VALID,0.0,VALID,93.13,VALID,266.192,VALID,19.786,VALID,177.0,VALID,0.488,
2017-07-20, 08:11:06,VALID,918.841,VALID,0.0,VALID,93.452,VALID,257.487,VALID,19.877,VALID,175.0,VALID,0.341,
2017-07-20, 08:12:06,VALID,918.841,VALID,0.0,VALID,93.458,VALID,266.864,VALID,19.975,VALID,179.0,VALID,0.585,
2017-07-20, 08:13:06,VALID,918.847,VALID,0.0,VALID,92.833,VALID,282.655,VALID,20.051,VALID,175.0,VALID,0.642,
2017-07-20, 08:14:06,VALID,918.837,VALID,0.0,VALID,92.632,VALID,360.089,VALID,20.117,VALID,158.0,VALID,0.667,
2017-07-20, 08:15:06,VALID,918.846,VALID,0.0,VALID,90.715,VALID,392.109,VALID,20.067,VALID,166.0,VALID,0.952,
2017-07-20, 08:16:06,VALID,918.866,VALID,0.0,VALID,92.415,VALID,389.897,VALID,20.147,VALID,168.0,VALID,0.583,
2017-07-20, 08:17:06,VALID,918.861,VALID,0.0,VALID,92.138,VALID,395.639,VALID,20.233,VALID,151.0,VALID,0.942,
2017-07-20, 08:18:06,VALID,918.869,VALID,0.0,VALID,91.698,VALID,405.457,VALID,20.233,VALID,142.0,VALID,0.777,
2017-07-20, 08:19:06,VALID,918.866,VALID,0.0,VALID,91.745,VALID,411.555,VALID,20.268,VALID,144.0,VALID,0.811,
2017-07-20, 08:20:06,VALID,918.853,VALID,0.0,VALID,92.007,VALID,412.556,VALID,20.29,VALID,143.0,VALID,0.471,
2017-07-20, 08:21:06,VALID,918.839,VALID,0.0,VALID,92.787,VALID,411.085,VALID,20.411,VALID,128.0,VALID,0.423,
2017-07-20, 08:22:06,VALID,918.802,VALID,0.0,VALID,93.248,VALID,413.878,VALID,20.54,VALID,107.0,VALID,0.498,
2017-07-20, 08:23:06,VALID,918.783,VALID,0.0,VALID,94.388,VALID,414.197,VALID,20.738,VALID,102.0,VALID,0.552,
2017-07-20, 08:24:06,VALID,918.792,VALID,0.0,VALID,93.108,VALID,414.353,VALID,20.875,VALID,135.0,VALID,0.397,
2017-07-20, 08:25:06,VALID,918.801,VALID,0.0,VALID,91.008,VALID,418.728,VALID,20.969,VALID,141.0,VALID,0.428,
2017-07-20, 08:26:06,VALID,918.814,VALID,0.0,VALID,89.414,VALID,419.257,VALID,21.069,VALID,138.0,VALID,0.238,
2017-07-20, 08:27:06,VALID,918.833,VALID,0.0,VALID,91.08,VALID,426.044,VALID,21.224,VALID,165.0,VALID,0.264,
2017-07-20, 08:28:06,VALID,918.867,VALID,0.0,VALID,90.914,VALID,436.633,VALID,21.368,VALID,162.0,VALID,0.496,
2017-07-20, 08:29:06,VALID,918.884,VALID,0.0,VALID,88.057,VALID,443.298,VALID,21.415,VALID,150.0,VALID,0.255,
2017-07-20, 08:30:06,VALID,918.905,VALID,0.0,VALID,88.283,VALID,446.344,VALID,21.441,VALID,149.0,VALID,0.167,
2017-07-20, 08:31:06,VALID,918.918,VALID,0.0,VALID,89.605,VALID,447.319,VALID,21.542,VALID,186.0,VALID,0.379,
2017-07-20, 08:32:06,VALID,918.894,VALID,0.0,VALID,89.06,VALID,446.502,VALID,21.662,VALID,189.0,VALID,0.114,
2017-07-20, 08:33:06,VALID,918.88,VALID,0.0,VALID,88.35,VALID,447.196,VALID,21.784,VALID,189.0,VALID,0.25,
2017-07-20, 08:34:06,VALID,918.884,VALID,0.0,VALID,86.895,VALID,436.184,VALID,21.904,VALID,173.0,VALID,0.198,
2017-07-20, 08:35:06,VALID,918.883,VALID,0.0,VALID,85.737,VALID,416.475,VALID,22.013,VALID,174.0,VALID,0.0,
2017-07-20, 08:36:06,VALID,918.892,VALID,0.0,VALID,84.352,VALID,403.508,VALID,22.113,VALID,174.0,VALID,0.0,
2017-07-20, 08:37:06,VALID,918.906,VALID,0.0,VALID,81.792,VALID,390.72,VALID,22.211,VALID,273.0,VALID,0.112,
2017-07-20, 08:38:06,VALID,918.926,VALID,0.0,VALID,80.611,VALID,327.411,VALID,22.26,VALID,288.0,VALID,0.082,
2017-07-20, 08:39:06,VALID,918.923,VALID,0.0,VALID,77.844,VALID,417.624,VALID,22.289,VALID,296.0,VALID,0.333,
2017-07-20, 08:40:06,VALID,918.928,VALID,0.0,VALID,78.004,VALID,487.089,VALID,22.144,VALID,318.0,VALID,0.422,
2017-07-20, 08:41:06,VALID,918.942,VALID,0.0,VALID,80.903,VALID,500.978,VALID,22.213,VALID,354.0,VALID,0.42,
2017-07-20, 08:42:06,VALID,918.95,VALID,0.0,VALID,80.386,VALID,495.994,VALID,22.396,VALID,320.0,VALID,0.276,
2017-07-20, 08:43:06,VALID,918.959,VALID,0.0,VALID,81.178,VALID,505.761,VALID,22.446,VALID,331.0,VALID,0.261,
2017-07-20, 08:44:06,VALID,918.972,VALID,0.0,VALID,80.962,VALID,513.541,VALID,22.571,VALID,351.0,VALID,0.414,
2017-07-20, 08:45:06,VALID,918.958,VALID,0.0,VALID,82.57,VALID,516.081,VALID,22.753,VALID,10.0,VALID,0.747,
2017-07-20, 08:46:06,VALID,918.94,VALID,0.0,VALID,82.1,VALID,518.783,VALID,22.814,VALID,43.0,VALID,0.196,
2017-07-20, 08:47:06,VALID,918.926,VALID,0.0,VALID,81.506,VALID,522.018,VALID,22.873,VALID,340.0,VALID,0.466,
2017-07-20, 08:48:06,VALID,918.925,VALID,0.0,VALID,80.592,VALID,524.907,VALID,22.891,VALID,14.0,VALID,0.422,
2017-07-20, 08:49:06,VALID,918.933,VALID,0.0,VALID,81.134,VALID,526.287,VALID,22.937,VALID,28.0,VALID,0.251,
2017-07-20, 08:50:06,VALID,918.944,VALID,0.0,VALID,79.18,VALID,519.999,VALID,22.979,VALID,337.0,VALID,0.784,
2017-07-20, 08:51:06,VALID,918.955,VALID,0.0,VALID,80.477,VALID,482.176,VALID,22.959,VALID,46.0,VALID,0.352,
2017-07-20, 08:52:06,VALID,918.975,VALID,0.0,VALID,77.942,VALID,375.37,VALID,22.989,VALID,334.0,VALID,0.675,
2017-07-20, 08:53:06,VALID,918.98,VALID,0.0,VALID,78.613,VALID,434.908,VALID,22.827,VALID,355.0,VALID,0.659,
2017-07-20, 08:54:06,VALID,918.979,VALID,0.0,VALID,78.429,VALID,524.549,VALID,22.708,VALID,8.0,VALID,0.722,
2017-07-20, 08:55:06,VALID,918.96,VALID,0.0,VALID,79.717,VALID,533.191,VALID,22.799,VALID,6.0,VALID,0.727,
2017-07-20, 08:56:06,VALID,918.962,VALID,0.0,VALID,77.982,VALID,542.914,VALID,22.955,VALID,20.0,VALID,1.016,
2017-07-20, 08:57:06,VALID,918.968,VALID,0.0,VALID,78.645,VALID,552.574,VALID,22.917,VALID,17.0,VALID,1.091,
2017-07-20, 08:58:06,VALID,918.994,VALID,0.0,VALID,76.422,VALID,557.98,VALID,22.787,VALID,19.0,VALID,0.981,
2017-07-20, 08:59:06,VALID,919.026,VALID,0.0,VALID,79.431,VALID,559.864,VALID,22.846,VALID,357.0,VALID,0.76,
2017-07-20, 09:00:06,VALID,919.052,VALID,0.0,VALID,78.692,VALID,560.576,VALID,23.015,VALID,330.0,VALID,0.707,
2017-07-20, 09:01:06,VALID,919.068,VALID,0.0,VALID,77.706,VALID,562.955,VALID,22.97,VALID,2.0,VALID,0.416,
2017-07-20, 09:02:06,VALID,919.087,VALID,0.0,VALID,78.565,VALID,563.516,VALID,23.06,VALID,359.0,VALID,0.09,
2017-07-20, 09:03:06,VALID,919.102,VALID,0.0,VALID,79.585,VALID,547.867,VALID,23.264,VALID,13.0,VALID,0.693,
2017-07-20, 09:04:06,VALID,919.118,VALID,0.0,VALID,78.175,VALID,522.406,VALID,23.549,VALID,24.0,VALID,0.968,
